Torna al catalogo

DELTA 4 R/B

LostMEO
NORAD 40535·ROCKET BODY·🇺🇸 United States

Lanciato Mar 25, 2015 da Cape Canaveral Space Force Station

Loading…

Prossimi Passaggi (prossime 24 ore)

TLE

ObsoletoSource: Space-Track

Epoca: Aug 5, 2026, 04:39 UTC

1 40535U 15013B   26217.19384281  .00000098  00000-0  00000-0 0  9998
2 40535  52.6345 214.2542 0033004  67.6102 292.7505  1.92974634 80100

Traccia DELTA 4 R/B in tempo reale con AllMySat

Download on the App Store